Weather History for Greenville, AL

Change the Weather History Date:

Wednesday, May 28, 2014

  Actual Average Record
Temperature  
Mean Temperature 76 °F -  
Max Temperature 86 °F 87 °F 97 °F (1953)
Min Temperature 68 °F 63 °F 47 °F (1961)
Cooling Degree Days 11    
Growing Degree Days 26 (Base 50)    
Moisture  
Dew Point 68 °F    
Average Humidity 82    
Maximum Humidity 94    
Minimum Humidity 53    
Precipitation  
Precipitation 0.06 in - - ()
Sea Level Pressure  
Sea Level Pressure 30.00 in    
Wind  
Wind Speed 3 mph (South)    
Max Wind Speed 12 mph    
Max Gust Speed 18 mph    
Visibility 7 miles    
Events Fog , Rain , Thunderstorm    
Averages and records for this station are not official NWS values.
T = Trace of Precipitation, MM = Missing Value Source: NWS Daily Summary

Daily Weather History Graph

Daily Weather History Graph

Search for Another Location

Airport:

Trip Planner

Search our weather history database for the weather conditions in past years. The results will help you decide how hot, cold, wet, or windy it might be!

Date:

Astronomy

May. 28, 2014 Rise Set
Actual Time 5:42 AM CDT 7:45 PM CDT
Civil Twilight 5:15 AM CDT 8:12 PM CDT
Nautical Twilight 4:41 AM CDT 8:46 PM CDT
Astronomical Twilight 4:05 AM CDT 9:22 PM CDT
Moon 5:44 AM CDT (5/28) 7:46 PM CDT (5/28)
Length of Visible Light 14h 57m
Length of Day
14h 02m
Waning Crescent, 0% of the Moon is Illuminated
May 28
Waning Crescent
May 28
New
Jun 5
First Quarter
Jun 12
Full
Jun 19
Last Quarter

Hourly Weather History & Observations

Time (CDT) Temp. Heat Index Dew Point Humidity Pressure Visibility Wind Dir Wind Speed Gust Speed Precip Events Conditions
12:56 AM 68.0 °F - 66.0 °F 93% 30.01 in 6.0 mi SSE 3.5 mph - N/A   Clear
1:56 AM 68.0 °F - 64.9 °F 90% 30.00 in 5.0 mi Calm Calm - N/A   Clear
2:56 AM 68.0 °F - 64.9 °F 90% 29.99 in 5.0 mi Calm Calm - N/A   Clear
3:56 AM 68.0 °F - 66.0 °F 93% 29.99 in 4.0 mi South 3.5 mph - N/A   Clear
4:56 AM 69.1 °F - 66.9 °F 93% 30.00 in 4.0 mi Calm Calm - N/A   Clear
5:05 AM 68.0 °F - 66.2 °F 94% 30.02 in 2.5 mi Calm Calm - N/A   Scattered Clouds
5:15 AM 68.0 °F - 66.2 °F 94% 30.02 in 3.0 mi Calm Calm - N/A   Mostly Cloudy
5:56 AM 69.1 °F - 66.0 °F 90% 30.01 in 3.0 mi Calm Calm - N/A   Overcast
6:06 AM 68.0 °F - 66.2 °F 94% 30.02 in 2.5 mi Calm Calm - N/A   Overcast
6:26 AM 69.8 °F - 66.2 °F 88% 30.02 in 1.5 mi Calm Calm - N/A   Overcast
6:46 AM 69.8 °F - 68.0 °F 94% 30.02 in 0.5 mi ESE 4.6 mph - N/A Fog Fog
6:56 AM 70.0 °F - 68.0 °F 93% 30.01 in 0.2 mi ESE 3.5 mph - N/A Fog Fog
8:07 AM 73.4 °F - 71.6 °F 94% 30.04 in 1.8 mi Variable 4.6 mph - N/A   Overcast
8:15 AM 73.4 °F - 71.6 °F 94% 30.03 in 2.0 mi SSE 5.8 mph - N/A   Overcast
8:33 AM 73.4 °F - 71.6 °F 94% 30.03 in 3.0 mi Variable 4.6 mph - N/A   Overcast
8:56 AM 75.0 °F - 72.0 °F 90% 30.03 in 7.0 mi South 4.6 mph - N/A   Overcast
9:14 AM 75.2 °F - 71.6 °F 89% 30.04 in 9.0 mi SSE 5.8 mph - N/A   Overcast
9:56 AM 79.0 °F - 71.1 °F 77% 30.03 in 10.0 mi SSE 6.9 mph 17.3 mph N/A   Mostly Cloudy
10:13 AM 78.8 °F - 71.6 °F 78% 30.04 in 10.0 mi SSE 5.8 mph - N/A   Scattered Clouds
10:56 AM 82.9 °F 86.5 °F 69.1 °F 63% 30.01 in 10.0 mi SSE 8.1 mph - N/A   Partly Cloudy
11:36 AM 84.2 °F 86.6 °F 66.2 °F 55% 30.02 in 10.0 mi South 11.5 mph 17.3 mph N/A Thunderstorm Thunderstorm
11:56 AM 84.0 °F 85.8 °F 64.9 °F 53% 30.01 in 10.0 mi South 9.2 mph 18.4 mph N/A   Partly Cloudy
12:56 PM 84.9 °F 87.6 °F 66.9 °F 55% 29.98 in 10.0 mi SE 6.9 mph 17.3 mph N/A   Mostly Cloudy
1:56 PM 84.0 °F 87.0 °F 68.0 °F 58% 29.97 in 10.0 mi Variable 4.6 mph - 0.00 in   Mostly Cloudy
2:56 PM 79.0 °F - 71.1 °F 77% 29.97 in 8.0 mi Variable 3.5 mph - 0.00 in Rain Light Rain
3:05 PM 78.8 °F - 71.6 °F 78% 29.99 in 9.0 mi WNW 6.9 mph - 0.00 in Rain , Thunderstorm Light Thunderstorms and Rain
3:41 PM 78.8 °F - 69.8 °F 74% 29.97 in 10.0 mi Calm Calm - 0.00 in   Partly Cloudy
3:56 PM 79.0 °F - 70.0 °F 74% 29.95 in 10.0 mi WNW 3.5 mph - 0.00 in   Partly Cloudy
5:36 PM 77.0 °F - 69.8 °F 78% 29.96 in 1.8 mi SSW 3.5 mph - 0.05 in Rain Heavy Rain
5:44 PM 77.0 °F - 69.8 °F 78% 29.96 in 3.0 mi Calm Calm - 0.06 in Rain Light Rain
5:56 PM 77.0 °F - 72.0 °F 84% 29.95 in 10.0 mi Calm Calm - 0.06 in   Mostly Cloudy
7:07 PM 75.2 °F - 68.0 °F 78% 29.98 in 10.0 mi South 4.6 mph - N/A Thunderstorm Thunderstorm
7:45 PM 75.2 °F - 68.0 °F 78% 29.99 in 10.0 mi Calm Calm - N/A   Overcast
7:56 PM 75.0 °F - 68.0 °F 79% 29.98 in 10.0 mi Calm Calm - N/A   Overcast
8:44 PM 71.6 °F - 66.2 °F 83% 30.02 in 10.0 mi WNW 6.9 mph 16.1 mph N/A   Overcast
8:56 PM 71.1 °F - 66.0 °F 84% 30.01 in 10.0 mi NW 4.6 mph - N/A   Mostly Cloudy
9:04 PM 71.6 °F - 66.2 °F 83% 30.02 in 10.0 mi NNW 5.8 mph - N/A   Scattered Clouds
10:56 PM 69.1 °F - 66.0 °F 90% 30.00 in 10.0 mi Calm Calm - N/A   Overcast
11:56 PM 69.1 °F - 66.0 °F 90% 29.99 in 10.0 mi Calm Calm - N/A   Clear